KLM84A LIMC-EHAM

Flight info

Callsign KLM84A
Flight time 1h 19m
Altitude 36000
Route DOGUB6TXAOSTA5W/35R AOSTA DCT ORSUD DCT MOLUS DCT GILIR DCT PENDU DCT IXILU DCT EPL DCT ROUSY DCT KOMOB DCT BUB Y28 HELEN
Aircraft A21N/M-SDE3FGHIRWY/LB1

Departure

Time 2026-05-05 20:00
Airport Milan Malpensa International Airport (LIMC)

Arrival

Time 2026-05-05 21:19
Airport Amsterdam Airport Schiphol (EHAM)
Time Latitude Longitude Altitude Speed Heading
2026-05-05 19:27 45.63010 8.71476 744 ft 0 kts 349°
2026-05-05 19:44 45.63003 8.71477 744 ft 2 kts 348°
2026-05-05 19:44 45.62988 8.71482 744 ft 2 kts 348°
2026-05-05 19:44 45.62974 8.71487 744 ft 2 kts 348°
2026-05-05 19:45 45.62959 8.71491 744 ft 2 kts 348°
2026-05-05 19:45 45.62944 8.71496 745 ft 2 kts 348°
2026-05-05 19:45 45.62936 8.71499 745 ft 0 kts 19°
2026-05-05 19:45 45.62931 8.71493 745 ft 1 kts 74°
2026-05-05 19:46 45.62930 8.71478 745 ft 0 kts 86°
2026-05-05 19:46 45.62929 8.71471 745 ft 0 kts 79°
2026-05-05 19:48 45.62933 8.71493 745 ft 6 kts 79°
2026-05-05 19:48 45.62947 8.71606 744 ft 14 kts 79°
2026-05-05 19:48 45.62966 8.71754 744 ft 15 kts 78°
2026-05-05 19:49 45.62978 8.71832 744 ft 8 kts 79°
2026-05-05 19:49 45.62978 8.71920 743 ft 9 kts 121°
2026-05-05 19:49 45.62910 8.71961 742 ft 12 kts 167°
2026-05-05 19:49 45.62816 8.71987 740 ft 14 kts 171°
2026-05-05 19:50 45.62706 8.72020 737 ft 17 kts 169°
2026-05-05 19:50 45.62583 8.72052 736 ft 18 kts 169°
2026-05-05 19:50 45.62457 8.72085 735 ft 18 kts 169°
2026-05-05 19:50 45.62354 8.72116 735 ft 13 kts 169°
2026-05-05 19:51 45.62255 8.72148 733 ft 15 kts 167°
2026-05-05 19:51 45.62141 8.72174 730 ft 17 kts 169°
2026-05-05 19:51 45.62016 8.72207 727 ft 19 kts 171°
2026-05-05 19:51 45.61878 8.72246 721 ft 21 kts 169°
2026-05-05 19:52 45.61737 8.72286 716 ft 20 kts 169°
2026-05-05 19:52 45.61612 8.72320 713 ft 17 kts 169°
2026-05-05 19:52 45.61496 8.72351 710 ft 16 kts 170°
2026-05-05 19:52 45.61429 8.72371 707 ft 8 kts 158°
2026-05-05 19:53 45.61407 8.72413 705 ft 6 kts 85°
2026-05-05 19:53 45.61374 8.72493 703 ft 14 kts 156°
2026-05-05 19:53 45.61258 8.72528 699 ft 18 kts 167°
2026-05-05 19:53 45.61153 8.72557 696 ft 12 kts 171°
2026-05-05 19:54 45.61084 8.72614 694 ft 13 kts 116°
2026-05-05 19:54 45.61091 8.72750 693 ft 14 kts 76°
2026-05-05 19:54 45.61110 8.72890 692 ft 15 kts 81°
2026-05-05 19:54 45.61135 8.73033 690 ft 13 kts 57°
2026-05-05 19:55 45.61210 8.73121 690 ft 14 kts 34°
2026-05-05 19:55 45.61295 8.73204 690 ft 14 kts 34°
2026-05-05 19:55 45.61383 8.73265 693 ft 13 kts
2026-05-05 19:55 45.61477 8.73249 696 ft 15 kts 352°
2026-05-05 19:56 45.61579 8.73228 698 ft 12 kts 12°
2026-05-05 19:56 45.61628 8.73332 697 ft 14 kts 76°
2026-05-05 19:56 45.61624 8.73455 697 ft 11 kts 118°
2026-05-05 19:56 45.61592 8.73555 696 ft 3 kts 103°
2026-05-05 19:57 45.61592 8.73556 696 ft 0 kts 102°
2026-05-05 19:58 45.61589 8.73580 696 ft 7 kts 96°
2026-05-05 19:59 45.61601 8.73692 697 ft 12 kts 60°
2026-05-05 19:59 45.61653 8.73728 699 ft 0 kts 351°
2026-05-05 19:59 45.61775 8.73695 700 ft 56 kts 348°
2026-05-05 20:00 45.62431 8.73513 713 ft 134 kts 350°
2026-05-05 20:00 45.63542 8.73208 948 ft 178 kts 349°
2026-05-05 20:00 45.64788 8.72907 1703 ft 187 kts 354°
2026-05-05 20:00 45.66013 8.72853 2791 ft 178 kts 358°
2026-05-05 20:01 45.67276 8.72790 3467 ft 190 kts 358°
2026-05-05 20:01 45.68621 8.72723 3943 ft 203 kts 357°
2026-05-05 20:01 45.70119 8.72634 4415 ft 225 kts 357°
2026-05-05 20:01 45.71712 8.72404 5031 ft 241 kts 343°
2026-05-05 20:02 45.73106 8.71142 5903 ft 245 kts 309°
2026-05-05 20:02 45.73803 8.68974 6789 ft 247 kts 277°
2026-05-05 20:02 45.73570 8.66564 7615 ft 251 kts 247°
2026-05-05 20:02 45.72826 8.64337 8428 ft 254 kts 244°
2026-05-05 20:03 45.72077 8.62058 9216 ft 257 kts 244°
2026-05-05 20:03 45.71259 8.59778 9993 ft 260 kts 239°
2026-05-05 20:03 45.70307 8.57545 10542 ft 272 kts 237°
2026-05-05 20:03 45.69266 8.55179 10985 ft 289 kts 237°
2026-05-05 20:04 45.68176 8.52701 11403 ft 306 kts 237°
2026-05-05 20:04 45.67002 8.50044 11801 ft 323 kts 237°
2026-05-05 20:04 45.65786 8.47318 12296 ft 334 kts 237°
2026-05-05 20:04 45.64530 8.44497 13077 ft 336 kts 237°
2026-05-05 20:05 45.63265 8.41748 13863 ft 336 kts 234°
2026-05-05 20:05 45.61855 8.39067 14607 ft 337 kts 231°
2026-05-05 20:05 45.60354 8.36487 15318 ft 340 kts 230°
2026-05-05 20:05 45.58981 8.33730 16007 ft 345 kts 242°
2026-05-05 20:06 45.58337 8.30458 16700 ft 352 kts 262°
2026-05-05 20:06 45.58535 8.26936 17396 ft 360 kts 281°
2026-05-05 20:06 45.59311 8.23530 18081 ft 364 kts 284°
2026-05-05 20:06 45.60117 8.20142 18708 ft 367 kts 284°
2026-05-05 20:07 45.60929 8.16700 19338 ft 369 kts 284°
2026-05-05 20:07 45.61749 8.13200 20055 ft 371 kts 284°
2026-05-05 20:07 45.62556 8.09730 20741 ft 375 kts 283°
2026-05-05 20:07 45.63377 8.06180 21409 ft 378 kts 283°
2026-05-05 20:08 45.64204 8.02595 22045 ft 382 kts 283°
2026-05-05 20:08 45.65034 7.98989 22585 ft 387 kts 284°
2026-05-05 20:08 45.65868 7.95359 22964 ft 390 kts 284°
2026-05-05 20:08 45.66713 7.91686 23363 ft 392 kts 284°
2026-05-05 20:09 45.67566 7.87967 23829 ft 393 kts 284°
2026-05-05 20:09 45.68430 7.84195 24322 ft 395 kts 284°
2026-05-05 20:09 45.69269 7.80519 24812 ft 396 kts 283°
2026-05-05 20:09 45.70131 7.76742 25312 ft 398 kts 283°
2026-05-05 20:10 45.70981 7.73009 25783 ft 401 kts 283°
2026-05-05 20:10 45.71845 7.69208 26253 ft 402 kts 283°
2026-05-05 20:10 45.72706 7.65417 26713 ft 404 kts 283°
2026-05-05 20:10 45.73573 7.61593 27169 ft 405 kts 283°
2026-05-05 20:11 45.74437 7.57771 27621 ft 406 kts 283°
2026-05-05 20:11 45.75294 7.53967 28023 ft 407 kts 282°
2026-05-05 20:11 45.76169 7.50071 28312 ft 409 kts 282°
2026-05-05 20:11 45.77029 7.46230 28631 ft 412 kts 282°
2026-05-05 20:12 45.77916 7.42323 29010 ft 414 kts 283°
2026-05-05 20:12 45.79091 7.38487 29357 ft 424 kts 292°
2026-05-05 20:12 45.80713 7.34904 29692 ft 434 kts 300°
2026-05-05 20:12 45.82758 7.31688 30100 ft 442 kts 309°
2026-05-05 20:13 45.85138 7.28943 30555 ft 447 kts 316°
2026-05-05 20:13 45.87660 7.26371 30990 ft 446 kts 316°
2026-05-05 20:13 45.90182 7.23844 31387 ft 445 kts 316°
2026-05-05 20:13 45.92708 7.21298 31774 ft 443 kts 316°
2026-05-05 20:14 45.95239 7.18731 32157 ft 442 kts 316°
2026-05-05 20:14 45.97739 7.16185 32514 ft 441 kts 315°
2026-05-05 20:14 46.00234 7.13625 32814 ft 441 kts 315°
2026-05-05 20:14 46.02705 7.11084 33053 ft 443 kts 315°
2026-05-05 20:15 46.05234 7.08483 33299 ft 444 kts 315°
2026-05-05 20:15 46.07743 7.05903 33554 ft 445 kts 315°
2026-05-05 20:15 46.10260 7.03313 33794 ft 446 kts 315°
2026-05-05 20:15 46.12779 7.00716 34000 ft 447 kts 316°
2026-05-05 20:16 46.15281 6.98135 34208 ft 447 kts 316°
2026-05-05 20:16 46.17812 6.95522 34437 ft 448 kts 316°
2026-05-05 20:16 46.20363 6.92888 34667 ft 448 kts 316°
2026-05-05 20:16 46.22889 6.90280 34895 ft 448 kts 316°
2026-05-05 20:17 46.25426 6.87659 35124 ft 448 kts 316°
2026-05-05 20:17 46.27969 6.85028 35343 ft 448 kts 316°
2026-05-05 20:17 46.30483 6.82420 35533 ft 448 kts 316°
2026-05-05 20:17 46.33011 6.79792 35691 ft 448 kts 316°
2026-05-05 20:18 46.35547 6.77153 35825 ft 449 kts 317°
2026-05-05 20:18 46.38316 6.74267 35944 ft 451 kts 317°
2026-05-05 20:19 46.43480 6.69087 35980 ft 455 kts 321°
2026-05-05 20:19 46.49052 6.64606 35970 ft 461 kts 327°
2026-05-05 20:20 46.54814 6.60550 35942 ft 461 kts 328°
2026-05-05 20:20 46.60600 6.56498 35929 ft 462 kts 328°
2026-05-05 20:21 46.66369 6.52430 35924 ft 462 kts 328°
2026-05-05 20:21 46.72156 6.48332 35922 ft 462 kts 328°
2026-05-05 20:22 46.77895 6.44258 35926 ft 462 kts 328°
2026-05-05 20:22 46.83662 6.40152 35932 ft 462 kts 328°
2026-05-05 20:23 46.89435 6.36031 35932 ft 462 kts 328°
2026-05-05 20:23 46.95198 6.31904 35922 ft 462 kts 328°
2026-05-05 20:24 47.00969 6.27764 35908 ft 462 kts 328°
2026-05-05 20:24 47.06723 6.23626 35896 ft 462 kts 328°
2026-05-05 20:25 47.12511 6.19458 35884 ft 463 kts 328°
2026-05-05 20:25 47.18254 6.15315 35877 ft 463 kts 328°
2026-05-05 20:26 47.24056 6.11119 35871 ft 463 kts 329°
2026-05-05 20:26 47.29883 6.07212 35865 ft 467 kts 335°
2026-05-05 20:27 47.36154 6.04540 35867 ft 472 kts 345°
2026-05-05 20:27 47.42689 6.03392 35875 ft 475 kts 355°
2026-05-05 20:28 47.49283 6.03454 35882 ft 476 kts 359°
2026-05-05 20:28 47.55923 6.03681 35881 ft 475 kts 359°
2026-05-05 20:29 47.62499 6.03860 35877 ft 474 kts 359°
2026-05-05 20:29 47.69051 6.04015 35870 ft 473 kts 359°
2026-05-05 20:30 47.75651 6.04173 35865 ft 473 kts 359°
2026-05-05 20:30 47.82202 6.04371 35863 ft 473 kts 359°
2026-05-05 20:31 47.88760 6.04577 35863 ft 473 kts 360°
2026-05-05 20:31 47.95344 6.04784 35863 ft 472 kts 360°
2026-05-05 20:32 48.01897 6.04989 35863 ft 472 kts 360°
2026-05-05 20:32 48.08446 6.05197 35863 ft 471 kts 360°
2026-05-05 20:33 48.14982 6.05403 35864 ft 471 kts 360°
2026-05-05 20:33 48.21555 6.05612 35864 ft 471 kts 360°
2026-05-05 20:34 48.28080 6.05819 35867 ft 471 kts 360°
2026-05-05 20:34 48.34595 6.06047 35867 ft 471 kts
2026-05-05 20:35 48.41150 6.06358 35870 ft 471 kts
2026-05-05 20:35 48.47683 6.06674 35871 ft 472 kts
2026-05-05 20:36 48.54253 6.06985 35872 ft 472 kts
2026-05-05 20:36 48.60835 6.07300 35865 ft 472 kts
2026-05-05 20:37 48.67368 6.07613 35862 ft 472 kts
2026-05-05 20:37 48.73897 6.07925 35858 ft 472 kts
2026-05-05 20:38 48.80448 6.08238 35857 ft 472 kts
2026-05-05 20:38 48.86985 6.08550 35858 ft 473 kts
2026-05-05 20:39 48.93576 6.08867 35860 ft 473 kts
2026-05-05 20:39 49.00130 6.09183 35860 ft 472 kts
2026-05-05 20:40 49.06690 6.09499 35861 ft 472 kts
2026-05-05 20:40 49.13216 6.09815 35861 ft 472 kts
2026-05-05 20:41 49.19765 6.10134 35861 ft 472 kts
2026-05-05 20:41 49.26337 6.10451 35861 ft 472 kts
2026-05-05 20:42 49.32902 6.10772 35860 ft 472 kts
2026-05-05 20:42 49.39427 6.11033 35858 ft 473 kts 359°
2026-05-05 20:43 49.45933 6.09740 35858 ft 474 kts 346°
2026-05-05 20:43 49.52110 6.06194 35857 ft 473 kts 332°
2026-05-05 20:44 49.57593 6.00813 35856 ft 472 kts 323°
2026-05-05 20:44 49.62932 5.94843 35854 ft 473 kts 323°
2026-05-05 20:45 49.70945 5.85931 35847 ft 473 kts 324°
2026-05-05 20:45 49.76269 5.80033 35843 ft 474 kts 324°
2026-05-05 20:46 49.81601 5.74118 35841 ft 474 kts 324°
2026-05-05 20:46 49.86950 5.68168 35839 ft 475 kts 324°
2026-05-05 20:47 49.92294 5.62208 35837 ft 475 kts 324°
2026-05-05 20:47 49.97653 5.56213 35837 ft 474 kts 324°
2026-05-05 20:48 50.02992 5.50223 35839 ft 474 kts 324°
2026-05-05 20:48 50.08287 5.44264 35855 ft 474 kts 324°
2026-05-05 20:49 50.13612 5.38251 35868 ft 473 kts 324°
2026-05-05 20:49 50.19008 5.32326 35865 ft 473 kts 324°
2026-05-05 20:50 50.24383 5.26533 35860 ft 473 kts 324°
2026-05-05 20:50 50.29800 5.20664 35859 ft 473 kts 324°
2026-05-05 20:51 50.35206 5.14776 35861 ft 472 kts 324°
2026-05-05 20:51 50.40546 5.08935 35862 ft 472 kts 324°
2026-05-05 20:52 50.45921 5.03041 35863 ft 472 kts 324°
2026-05-05 20:52 50.51299 4.97128 35865 ft 471 kts 324°
2026-05-05 20:53 50.56654 4.91224 35833 ft 472 kts 324°
2026-05-05 20:53 50.59323 4.88274 35627 ft 470 kts 324°
2026-05-05 20:53 50.61986 4.85328 35423 ft 468 kts 324°
2026-05-05 20:54 50.64616 4.82415 35220 ft 465 kts 324°
2026-05-05 20:54 50.67239 4.79505 35016 ft 463 kts 324°
2026-05-05 20:54 50.69887 4.76562 34808 ft 461 kts 324°
2026-05-05 20:54 50.72502 4.73652 34552 ft 460 kts 324°
2026-05-05 20:55 50.75087 4.70772 34293 ft 460 kts 324°
2026-05-05 20:55 50.77718 4.67834 34029 ft 461 kts 324°
2026-05-05 20:55 50.80294 4.64955 33704 ft 461 kts 324°
2026-05-05 20:55 50.82937 4.61997 33232 ft 462 kts 324°
2026-05-05 20:56 50.85482 4.58992 32659 ft 462 kts 320°
2026-05-05 20:56 50.87893 4.55676 32011 ft 462 kts 316°
2026-05-05 20:56 50.90155 4.52025 31323 ft 463 kts 311°
2026-05-05 20:56 50.92201 4.48146 30576 ft 463 kts 307°
2026-05-05 20:57 50.94047 4.44020 29856 ft 463 kts 302°
2026-05-05 20:57 50.95733 4.39742 29231 ft 460 kts 300°
2026-05-05 20:57 50.97382 4.35417 28731 ft 452 kts 300°
2026-05-05 20:57 50.99005 4.31147 28220 ft 448 kts 300°
2026-05-05 20:58 51.00603 4.26957 27722 ft 445 kts 300°
2026-05-05 20:58 51.02202 4.22778 27228 ft 441 kts 300°
2026-05-05 20:58 51.03786 4.18638 26736 ft 438 kts 300°
2026-05-05 20:58 51.05358 4.14525 26302 ft 435 kts 300°
2026-05-05 20:59 51.06911 4.10461 25848 ft 431 kts 300°
2026-05-05 20:59 51.08501 4.06516 25375 ft 429 kts 304°
2026-05-05 20:59 51.10418 4.02910 24892 ft 427 kts 313°
2026-05-05 20:59 51.12637 3.99782 24394 ft 424 kts 321°
2026-05-05 21:00 51.14993 3.96963 23900 ft 421 kts 322°
2026-05-05 21:00 51.17331 3.94254 23411 ft 418 kts 323°
2026-05-05 21:00 51.19672 3.91530 22924 ft 414 kts 322°
2026-05-05 21:00 51.22024 3.88971 22443 ft 412 kts 330°
2026-05-05 21:01 51.24667 3.87311 21967 ft 410 kts 345°
2026-05-05 21:01 51.27495 3.86726 21494 ft 407 kts 358°
2026-05-05 21:01 51.30297 3.86645 21029 ft 404 kts 359°
2026-05-05 21:01 51.33052 3.86633 20569 ft 400 kts 360°
2026-05-05 21:02 51.35846 3.86616 20101 ft 397 kts 359°
2026-05-05 21:02 51.38567 3.86583 19642 ft 394 kts 359°
2026-05-05 21:02 51.41316 3.86536 19176 ft 391 kts 359°
2026-05-05 21:02 51.43982 3.86482 18722 ft 387 kts 359°
2026-05-05 21:03 51.46672 3.86424 18262 ft 384 kts 359°
2026-05-05 21:03 51.49321 3.86361 17808 ft 381 kts 359°
2026-05-05 21:03 51.51969 3.86295 17349 ft 378 kts 359°
2026-05-05 21:03 51.54550 3.86238 16902 ft 374 kts 359°
2026-05-05 21:04 51.57133 3.86173 16450 ft 371 kts 359°
2026-05-05 21:04 51.59710 3.86115 15999 ft 368 kts 359°
2026-05-05 21:04 51.62238 3.86055 15549 ft 365 kts 359°
2026-05-05 21:04 51.64763 3.85994 15097 ft 362 kts 359°
2026-05-05 21:05 51.67261 3.85935 14643 ft 359 kts 359°
2026-05-05 21:05 51.69771 3.85890 14185 ft 369 kts
2026-05-05 21:05 51.72304 3.86634 13668 ft 373 kts 22°
2026-05-05 21:05 51.74483 3.88784 13187 ft 370 kts 40°
2026-05-05 21:06 51.76396 3.91554 12711 ft 367 kts 43°
2026-05-05 21:06 51.78274 3.94332 12226 ft 364 kts 43°
2026-05-05 21:06 51.80123 3.97051 11750 ft 362 kts 43°
2026-05-05 21:06 51.81970 3.99748 11276 ft 359 kts 42°
2026-05-05 21:07 51.83810 4.02423 10801 ft 355 kts 42°
2026-05-05 21:07 51.85635 4.05070 10431 ft 348 kts 42°
2026-05-05 21:07 51.87396 4.07622 10279 ft 333 kts 41°
2026-05-05 21:07 51.89082 4.10065 10127 ft 320 kts 41°
2026-05-05 21:08 51.90780 4.12316 9950 ft 307 kts 30°
2026-05-05 21:08 51.92759 4.13238 9853 ft 292 kts
2026-05-05 21:08 51.94726 4.13024 9878 ft 286 kts 355°
2026-05-05 21:08 51.96726 4.12736 9897 ft 286 kts 355°
2026-05-05 21:09 51.98706 4.12479 9685 ft 288 kts 356°
2026-05-05 21:09 52.00705 4.12245 9292 ft 287 kts 356°
2026-05-05 21:09 52.02678 4.12025 8924 ft 285 kts 356°
2026-05-05 21:09 52.04642 4.11811 8566 ft 282 kts 356°
2026-05-05 21:10 52.06586 4.11904 8200 ft 279 kts 10°
2026-05-05 21:10 52.08413 4.12845 7856 ft 275 kts 23°
2026-05-05 21:10 52.10125 4.14127 7520 ft 272 kts 25°
2026-05-05 21:10 52.11833 4.15461 7181 ft 268 kts 25°
2026-05-05 21:11 52.13495 4.16755 6854 ft 264 kts 25°
2026-05-05 21:11 52.15143 4.18024 6529 ft 260 kts 25°
2026-05-05 21:11 52.16758 4.19261 6212 ft 256 kts 25°
2026-05-05 21:11 52.18351 4.20477 5899 ft 253 kts 25°
2026-05-05 21:12 52.19883 4.21807 5561 ft 251 kts 38°
2026-05-05 21:12 52.20976 4.23975 5230 ft 249 kts 63°
2026-05-05 21:12 52.21598 4.26587 4925 ft 248 kts 69°
2026-05-05 21:12 52.22165 4.29239 4616 ft 245 kts 69°
2026-05-05 21:13 52.22717 4.31790 4524 ft 233 kts 69°
2026-05-05 21:13 52.23238 4.34201 4449 ft 222 kts 68°
2026-05-05 21:13 52.23532 4.36646 4329 ft 226 kts 92°
2026-05-05 21:13 52.23044 4.39109 4050 ft 231 kts 112°
2026-05-05 21:14 52.22330 4.41459 3755 ft 229 kts 112°
2026-05-05 21:14 52.21650 4.43766 3471 ft 226 kts 112°
2026-05-05 21:14 52.21032 4.46096 3222 ft 220 kts 101°
2026-05-05 21:14 52.20828 4.48536 3163 ft 219 kts 90°
2026-05-05 21:15 52.20773 4.51013 3044 ft 218 kts 87°
2026-05-05 21:15 52.20985 4.53398 2853 ft 211 kts 63°
2026-05-05 21:15 52.21715 4.55362 2674 ft 195 kts 52°
2026-05-05 21:15 52.22471 4.57049 2491 ft 175 kts 52°
2026-05-05 21:16 52.23116 4.58593 2253 ft 159 kts 54°
2026-05-05 21:16 52.23691 4.60052 1992 ft 147 kts 55°
2026-05-05 21:16 52.24228 4.61457 1780 ft 146 kts 55°
2026-05-05 21:16 52.24760 4.62863 1577 ft 145 kts 55°
2026-05-05 21:17 52.25290 4.64257 1383 ft 145 kts 55°
2026-05-05 21:17 52.25815 4.65634 1185 ft 137 kts 56°
2026-05-05 21:17 52.26295 4.66888 978 ft 124 kts 55°
2026-05-05 21:17 52.26751 4.68079 826 ft 125 kts 55°
2026-05-05 21:18 52.27216 4.69296 665 ft 126 kts 56°
2026-05-05 21:18 52.27684 4.70521 486 ft 127 kts 58°
2026-05-05 21:18 52.28138 4.71736 305 ft 127 kts 57°
2026-05-05 21:18 52.28616 4.72967 157 ft 127 kts 57°
2026-05-05 21:19 52.29075 4.74157 2 ft 117 kts 58°
2026-05-05 21:19 52.29439 4.75100 0 ft 74 kts 57°
2026-05-05 21:19 52.29631 4.75596 -3 ft 40 kts 57°
2026-05-05 21:19 52.29794 4.75814 -3 ft 28 kts 25°
2026-05-05 21:20 52.29959 4.75955 -1 ft 25 kts 32°
2026-05-05 21:20 52.30060 4.76166 0 ft 23 kts 58°
2026-05-05 21:20 52.30147 4.76389 0 ft 22 kts 58°
2026-05-05 21:20 52.30226 4.76602 -2 ft 18 kts 58°
2026-05-05 21:21 52.30308 4.76729 0 ft 15 kts 351°
2026-05-05 21:21 52.30361 4.76595 0 ft 14 kts 304°
2026-05-05 21:21 52.30435 4.76509 3 ft 12 kts 328°
2026-05-05 21:21 52.30486 4.76493 5 ft 6 kts 49°
2026-05-05 21:22 52.30502 4.76536 5 ft 3 kts 58°
2026-05-05 21:22 52.30508 4.76553 5 ft 0 kts 59°